Tracking 21076 objects as of 7-Aug-2020
HD Live streaming from Space Station
objects crossing your sky now

FREGAT DEB

Track FREGAT DEB now!
10-day predictions


NORAD ID: 45614
Int'l Code: 2011-037H
Perigee: 505.9 km
Apogee: 3,473.0 km
Inclination: 51.4 °
Period: 126.8 minutes
Semi major axis: 8360 km
RCS: Unknown
Launch date: July 18, 2011
Source: Commonwealth of Independent States (former USSR) (CIS)
Launch site: TYURATAM MISSILE AND SPACE COMPLEX (TTMTR)

Note: This is SATELLITE DEBRIS
aabbcc
Your satellite tracking list
Your tracking list is empty




NASA's NSSDC Master Catalog

Two Line Element Set (TLE):
1 45614U 11037H   20219.51998276 +.00009343 +00000-0 +37479-2 0  9994
2 45614 051.3505 222.8241 1774474 166.5067 199.0415 11.35685155010029
Source of the keplerian elements: AFSPC